| time (UTC) | temp F | wind direction | speed MPH | gust MPH | rain 1hr in | rain 24hr in | rain mn in | humidity % | barometer mb |
| 20260510224020 | 67 | 31 | 8.0 | 10.0 | 0.00 | 0.00 | 0.00 | 91 | 1019.4 |
| 20260510223024 | 67 | 45 | 10.0 | 12.0 | 0.00 | 0.00 | 0.00 | 91 | 1018.7 |
| 20260510222046 | 67 | 58 | 11.0 | 16.0 | 0.00 | 0.00 | 0.00 | 90 | 1018.3 |
| 20260510221030 | 67 | 40 | 13.0 | 20.0 | 0.00 | 0.00 | 0.00 | 89 | 1019.0 |
| 20260510220016 | 67 | 38 | 12.0 | 16.0 | 0.00 | 0.00 | 0.00 | 88 | 1019.1 |
| 20260510215018 | 68 | 6 | 10.0 | 15.0 | 0.00 | 0.00 | 0.00 | 88 | 1019.1 |
| 20260510214021 | 69 | 16 | 11.0 | 19.0 | 0.00 | 0.00 | 0.00 | 87 | 1019.2 |
| 20260510213025 | 71 | 349 | 9.0 | 13.0 | 0.00 | 0.00 | 0.00 | 80 | 1018.8 |
| 20260510212029 | 72 | 42 | 11.0 | 19.0 | 0.00 | 0.00 | 0.00 | 79 | 1018.6 |
| 20260510211037 | 72 | 38 | 10.0 | 17.0 | 0.00 | 0.00 | 0.00 | 81 | 1018.4 |
| 20260510210017 | 73 | 31 | 8.0 | 13.0 | 0.00 | 0.00 | 0.00 | 82 | 1018.0 |
| 20260510205020 | 73 | 33 | 8.0 | 10.0 | 0.00 | 0.00 | 0.00 | 81 | 1018.3 |
| 20260510204024 | 73 | 53 | 6.0 | 8.0 | 0.00 | 0.00 | 0.00 | 81 | 1018.3 |
| 20260510203041 | 73 | 51 | 7.0 | 9.0 | 0.00 | 0.00 | 0.00 | 81 | 1018.3 |
| 20260510202018 | 73 | 60 | 8.0 | 12.0 | 0.00 | 0.00 | 0.00 | 80 | 1018.3 |
| 20260510201020 | 74 | 61 | 9.0 | 15.0 | 0.00 | 0.00 | 0.00 | 78 | 1018.3 |
| 20260510200039 | 73 | 68 | 6.0 | 9.0 | 0.00 | 0.00 | 0.00 | 81 | 1018.5 |
| 20260510195022 | 72 | 66 | 6.0 | 10.0 | 0.00 | 0.00 | 0.00 | 81 | 1018.7 |
| 20260510194025 | 70 | 61 | 8.0 | 11.0 | 0.00 | 0.00 | 0.00 | 84 | 1018.8 |
| 20260510193029 | 69 | 68 | 8.0 | 12.0 | 0.00 | 0.00 | 0.00 | 85 | 1018.7 |
| 20260510192052 | 69 | 40 | 7.0 | 10.0 | 0.00 | 0.00 | 0.00 | 85 | 1018.6 |
| 20260510191017 | 69 | 49 | 11.0 | 15.0 | 0.00 | 0.00 | 0.00 | 85 | 1018.6 |
| 20260510190041 | 69 | 56 | 10.0 | 18.0 | 0.00 | 0.00 | 0.00 | 85 | 1018.5 |
| 20260510185024 | 69 | 73 | 12.0 | 17.0 | 0.00 | 0.00 | 0.00 | 86 | 1018.5 |
| 20260510184048 | 70 | 69 | 11.0 | 16.0 | 0.00 | 0.00 | 0.00 | 85 | 1018.4 |
| 20260510183030 | 71 | 47 | 12.0 | 16.0 | 0.00 | 0.00 | 0.00 | 82 | 1018.1 |
| 20260510182015 | 72 | 39 | 12.0 | 17.0 | 0.00 | 0.00 | 0.00 | 79 | 1018.0 |
| 20260510181018 | 72 | 36 | 8.0 | 12.0 | 0.00 | 0.00 | 0.00 | 79 | 1018.1 |
| 20260510180022 | 70 | 52 | 8.0 | 12.0 | 0.00 | 0.00 | 0.00 | 79 | 1018.1 |
| 20260510175030 | 69 | 48 | 10.0 | 14.0 | 0.00 | 0.00 | 0.00 | 79 | 1018.7 |
| 20260510174033 | 69 | 45 | 12.0 | 19.0 | 0.00 | 0.00 | 0.00 | 76 | 1018.8 |
| 20260510173032 | 72 | 9 | 12.0 | 19.0 | 0.00 | 0.00 | 0.00 | 73 | 1018.1 |
| 20260510172016 | 80 | 27 | 5.0 | 13.0 | 0.00 | 0.00 | 0.00 | 71 | 1017.8 |
| 20260510171019 | 79 | 170 | 3.0 | 5.0 | 0.00 | 0.00 | 0.00 | 73 | 1017.5 |
| 20260510170023 | 79 | 166 | 4.0 | 8.0 | 0.00 | 0.00 | 0.00 | 72 | 1017.2 |
| 20260510165020 | 81 | 168 | 7.0 | 11.0 | 0.00 | 0.00 | 0.00 | 69 | 1016.3 |
| 20260510164017 | 83 | 153 | 6.0 | 10.0 | 0.00 | 0.00 | 0.00 | 68 | 1016.1 |
| 20260510163035 | 81 | 164 | 10.0 | 15.0 | 0.00 | 0.00 | 0.00 | 69 | 1016.0 |
| 20260510162018 | 81 | 157 | 9.0 | 11.0 | 0.00 | 0.00 | 0.00 | 69 | 1015.9 |
| 20260510161021 | 81 | 153 | 6.0 | 10.0 | 0.00 | 0.00 | 0.00 | 68 | 1015.7 |
| 20260510160025 | 80 | 163 | 10.0 | 15.0 | 0.00 | 0.00 | 0.00 | 69 | 1015.4 |
| 20260510155028 | 79 | 150 | 10.0 | 13.0 | 0.00 | 0.00 | 0.00 | 68 | 1015.4 |
| 20260510154031 | 79 | 159 | 9.0 | 11.0 | 0.00 | 0.00 | 0.00 | 69 | 1015.4 |
| 20260510153037 | 78 | 149 | 11.0 | 16.0 | 0.00 | 0.00 | 0.00 | 69 | 1015.5 |
| 20260510152020 | 78 | 152 | 8.0 | 13.0 | 0.00 | 0.00 | 0.00 | 69 | 1015.7 |
| 20260510151023 | 77 | 148 | 8.0 | 10.0 | 0.00 | 0.00 | 0.00 | 69 | 1015.8 |
| 20260510150026 | 76 | 141 | 7.0 | 8.0 | 0.00 | 0.00 | 0.00 | 69 | 1016.1 |
| 20260510145024 | 75 | 144 | 6.0 | 11.0 | 0.00 | 0.00 | 0.00 | 69 | 1016.1 |
| 20260510144032 | 74 | 149 | 4.0 | 7.0 | 0.00 | 0.00 | 0.00 | 71 | 1016.3 |
| 20260510143030 | 72 | 154 | 6.0 | 9.0 | 0.00 | 0.00 | 0.00 | 72 | 1016.5 |
| 20260510142015 | 72 | 140 | 5.0 | 7.0 | 0.00 | 0.00 | 0.00 | 73 | 1016.8 |
| 20260510141024 | 71 | 127 | 5.0 | 8.0 | 0.00 | 0.00 | 0.00 | 73 | 1017.0 |
| 20260510140022 | 71 | 108 | 5.0 | 7.0 | 0.00 | 0.00 | 0.00 | 73 | 1017.1 |
| 20260510135025 | 70 | 102 | 4.0 | 7.0 | 0.00 | 0.00 | 0.00 | 74 | 1017.1 |
| 20260510134028 | 70 | 97 | 8.0 | 11.0 | 0.00 | 0.00 | 0.00 | 74 | 1016.8 |
| 20260510133026 | 70 | 103 | 8.0 | 14.0 | 0.00 | 0.00 | 0.00 | 74 | 1016.5 |
| 20260510132017 | 70 | 120 | 5.0 | 8.0 | 0.00 | 0.00 | 0.00 | 75 | 1016.5 |
| 20260510131020 | 70 | 115 | 5.0 | 9.0 | 0.00 | 0.00 | 0.00 | 75 | 1016.5 |
| 20260510130017 | 70 | 99 | 5.0 | 10.0 | 0.00 | 0.00 | 0.00 | 76 | 1016.3 |
| 20260510125015 | 70 | 101 | 8.0 | 10.0 | 0.00 | 0.00 | 0.00 | 77 | 1016.3 |
| 20260510124030 | 69 | 100 | 6.0 | 9.0 | 0.00 | 0.00 | 0.00 | 78 | 1016.1 |
| 20260510123015 | 69 | 98 | 5.0 | 8.0 | 0.00 | 0.00 | 0.00 | 78 | 1016.1 |
| 20260510122019 | 69 | 102 | 4.0 | 10.0 | 0.00 | 0.00 | 0.00 | 78 | 1016.0 |
| 20260510121023 | 69 | 111 | 6.0 | 9.0 | 0.00 | 0.00 | 0.00 | 78 | 1015.8 |
| 20260510120025 | 69 | 90 | 6.0 | 10.0 | 0.00 | 0.00 | 0.00 | 78 | 1015.7 |
| 20260510115048 | 69 | 97 | 7.0 | 10.0 | 0.00 | 0.00 | 0.00 | 78 | 1015.7 |
| 20260510114032 | 69 | 90 | 9.0 | 11.0 | 0.00 | 0.00 | 0.00 | 78 | 1015.7 |
| 20260510113017 | 70 | 85 | 8.0 | 11.0 | 0.00 | 0.00 | 0.00 | 78 | 1015.7 |
| 20260510112020 | 70 | 94 | 8.0 | 12.0 | 0.00 | 0.00 | 0.00 | 78 | 1015.6 |
| 20260510111023 | 70 | 80 | 10.0 | 16.0 | 0.00 | 0.00 | 0.00 | 78 | 1015.4 |
| 20260510110031 | 70 | 87 | 10.0 | 15.0 | 0.00 | 0.00 | 0.00 | 78 | 1015.3 |
| 20260510105029 | 70 | 76 | 11.0 | 15.0 | 0.00 | 0.00 | 0.00 | 78 | 1015.6 |
| 20260510104032 | 71 | 63 | 13.0 | 21.0 | 0.00 | 0.00 | 0.00 | 79 | 1015.6 |
| 20260510103018 | 72 | 69 | 14.0 | 22.0 | 0.00 | 0.00 | 0.00 | 82 | 1015.3 |
| 20260510102021 | 73 | 84 | 7.0 | 9.0 | 0.00 | 0.00 | 0.00 | 91 | 1015.2 |
| 20260510101045 | 73 | 65 | 7.0 | 10.0 | 0.00 | 0.00 | 0.00 | 91 | 1015.1 |
| 20260510100048 | 72 | 72 | 7.0 | 9.0 | 0.00 | 0.00 | 0.00 | 92 | 1014.8 |
| 20260510095025 | 72 | 58 | 7.0 | 10.0 | 0.00 | 0.00 | 0.00 | 92 | 1015.0 |
| 20260510094017 | 71 | 40 | 6.0 | 9.0 | 0.00 | 0.00 | 0.00 | 93 | 1014.5 |
| 20260510093020 | 71 | 58 | 5.0 | 6.0 | 0.00 | 0.00 | 0.00 | 93 | 1014.3 |
| 20260510092018 | 71 | 41 | 4.0 | 5.0 | 0.00 | 0.00 | 0.00 | 93 | 1014.0 |
| 20260510091035 | 71 | 63 | 2.0 | 3.0 | 0.00 | 0.00 | 0.00 | 93 | 1013.6 |
| 20260510090031 | 71 | 60 | 3.0 | 4.0 | 0.00 | 0.00 | 0.00 | 92 | 1013.5 |
| 20260510085035 | 71 | 16 | 3.0 | 4.0 | 0.00 | 0.00 | 0.00 | 92 | 1013.5 |
| 20260510084019 | 71 | 26 | 4.0 | 5.0 | 0.00 | 0.00 | 0.00 | 92 | 1013.0 |
| 20260510083022 | 71 | 0.0 | 0.0 | 0.00 | 0.00 | 0.00 | 91 | 1012.6 | |
| 20260510082026 | 71 | 65 | 1.0 | 2.0 | 0.00 | 0.00 | 0.00 | 90 | 1012.4 |
| 20260510081029 | 72 | 0.0 | 0.0 | 0.00 | 0.00 | 0.00 | 89 | 1012.2 | |
| 20260510080032 | 72 | 45 | 2.0 | 3.0 | 0.00 | 0.00 | 0.00 | 89 | 1012.2 |
| 20260510075017 | 72 | 52 | 2.0 | 2.0 | 0.00 | 0.00 | 0.00 | 88 | 1012.1 |
| 20260510074021 | 72 | 123 | 1.0 | 2.0 | 0.00 | 0.00 | 0.00 | 87 | 1012.0 |
| 20260510073024 | 73 | 157 | 1.0 | 3.0 | 0.00 | 0.00 | 0.00 | 85 | 1012.3 |
| 20260510072028 | 73 | 107 | 1.0 | 2.0 | 0.00 | 0.00 | 0.00 | 84 | 1012.6 |
| 20260510071051 | 73 | 44 | 3.0 | 3.0 | 0.00 | 0.00 | 0.00 | 83 | 1012.9 |
| 20260510070016 | 73 | 34 | 1.0 | 2.0 | 0.00 | 0.00 | 0.00 | 83 | 1013.0 |
| 20260510065019 | 73 | 34 | 3.0 | 4.0 | 0.00 | 0.00 | 0.00 | 83 | 1013.2 |
| 20260510064103 | 73 | 334 | 3.0 | 6.0 | 0.00 | 0.00 | 0.00 | 83 | 1012.2 |
| 20260510063026 | 73 | 3 | 0.0 | 2.0 | 0.00 | 0.00 | 0.00 | 81 | 1011.5 |
| 20260510062029 | 74 | 153 | 4.0 | 5.0 | 0.00 | 0.00 | 0.00 | 79 | 1011.4 |
| 20260510061027 | 73 | 160 | 3.0 | 6.0 | 0.00 | 0.00 | 0.00 | 79 | 1011.4 |
| 20260510060017 | 73 | 154 | 3.0 | 5.0 | 0.00 | 0.00 | 0.00 | 79 | 1011.2 |
| 20260510055022 | 73 | 126 | 1.0 | 2.0 | 0.00 | 0.00 | 0.00 | 76 | 1011.2 |
| 20260510054018 | 74 | 130 | 1.0 | 2.0 | 0.00 | 0.00 | 0.00 | 75 | 1011.0 |
| 20260510053015 | 74 | 157 | 3.0 | 5.0 | 0.00 | 0.00 | 0.00 | 74 | 1010.9 |
| 20260510052031 | 74 | 165 | 3.0 | 5.0 | 0.00 | 0.00 | 0.00 | 75 | 1010.8 |
| 20260510051041 | 75 | 156 | 3.0 | 4.0 | 0.00 | 0.00 | 0.00 | 75 | 1010.8 |
| 20260510050024 | 75 | 169 | 4.0 | 6.0 | 0.00 | 0.00 | 0.00 | 75 | 1010.7 |
| 20260510045022 | 75 | 155 | 3.0 | 5.0 | 0.00 | 0.00 | 0.00 | 75 | 1010.8 |
| 20260510044046 | 75 | 139 | 2.0 | 3.0 | 0.00 | 0.00 | 0.00 | 74 | 1011.0 |
| 20260510043029 | 75 | 155 | 2.0 | 4.0 | 0.00 | 0.00 | 0.00 | 73 | 1011.0 |
| 20260510042033 | 75 | 131 | 2.0 | 3.0 | 0.00 | 0.00 | 0.00 | 73 | 1011.1 |
| 20260510041018 | 75 | 148 | 2.0 | 3.0 | 0.00 | 0.00 | 0.00 | 71 | 1011.2 |
| 20260510040042 | 76 | 124 | 3.0 | 5.0 | 0.00 | 0.00 | 0.00 | 71 | 1011.2 |
| 20260510035024 | 76 | 118 | 2.0 | 4.0 | 0.00 | 0.00 | 0.00 | 70 | 1011.2 |
| 20260510034033 | 76 | 113 | 2.0 | 4.0 | 0.00 | 0.00 | 0.00 | 70 | 1011.4 |
| 20260510033031 | 76 | 102 | 3.0 | 5.0 | 0.00 | 0.00 | 0.00 | 70 | 1011.3 |
| 20260510032017 | 76 | 116 | 2.0 | 4.0 | 0.00 | 0.00 | 0.00 | 70 | 1011.3 |
| 20260510031040 | 76 | 118 | 0.0 | 3.0 | 0.00 | 0.00 | 0.00 | 70 | 1011.4 |
| 20260510030023 | 76 | 133 | 1.0 | 2.0 | 0.00 | 0.00 | 0.00 | 69 | 1011.0 |
| 20260510025026 | 77 | 133 | 1.0 | 3.0 | 0.00 | 0.00 | 0.00 | 68 | 1011.0 |
| 20260510024029 | 78 | 110 | 1.0 | 2.0 | 0.00 | 0.00 | 0.00 | 68 | 1010.8 |
| 20260510023027 | 78 | 104 | 1.0 | 2.0 | 0.00 | 0.00 | 0.00 | 66 | 1010.7 |
| 20260510022018 | 79 | 111 | 2.0 | 4.0 | 0.00 | 0.00 | 0.00 | 66 | 1010.6 |
| 20260510021041 | 79 | 98 | 2.0 | 4.0 | 0.00 | 0.00 | 0.00 | 66 | 1010.5 |
| 20260510020038 | 80 | 103 | 3.0 | 4.0 | 0.00 | 0.00 | 0.00 | 66 | 1010.3 |
| 20260510015016 | 80 | 117 | 2.0 | 4.0 | 0.00 | 0.00 | 0.00 | 66 | 1010.3 |
| 20260510014112 | 81 | 118 | 2.0 | 4.0 | 0.00 | 0.00 | 0.00 | 65 | 1010.2 |
| 20260510013037 | 82 | 126 | 2.0 | 4.0 | 0.00 | 0.00 | 0.00 | 63 | 1010.1 |
| 20260510012019 | 83 | 102 | 5.0 | 9.0 | 0.00 | 0.00 | 0.00 | 62 | 1009.9 |
| 20260510011023 | 84 | 87 | 3.0 | 6.0 | 0.00 | 0.00 | 0.00 | 59 | 1009.8 |
| 20260510010027 | 86 | 118 | 4.0 | 6.0 | 0.00 | 0.00 | 0.00 | 53 | 1009.7 |
| 20260510005030 | 86 | 115 | 2.0 | 3.0 | 0.00 | 0.00 | 0.00 | 48 | 1009.6 |
| 20260510004032 | 87 | 104 | 2.0 | 3.0 | 0.00 | 0.00 | 0.00 | 47 | 1009.5 |
| 20260510003018 | 88 | 180 | 0.0 | 1.0 | 0.00 | 0.00 | 0.00 | 45 | 1009.6 |
| 20260510002021 | 88 | 97 | 0.0 | 2.0 | 0.00 | 0.00 | 0.00 | 46 | 1009.6 |
| 20260510001024 | 88 | 163 | 0.0 | 1.0 | 0.00 | 0.00 | 0.00 | 49 | 1009.6 |
| 20260510000027 | 88 | 92 | 2.0 | 3.0 | 0.00 | 0.00 | 0.00 | 46 | 1009.5 |
| 20260509235031 | 88 | 126 | 2.0 | 3.0 | 0.00 | 0.00 | 0.00 | 46 | 1009.7 |
| 20260509234016 | 89 | 99 | 2.0 | 4.0 | 0.00 | 0.00 | 0.00 | 45 | 1009.6 |
| 20260509233019 | 89 | 171 | 2.0 | 3.0 | 0.00 | 0.00 | 0.00 | 46 | 1009.7 |
| 20260509232023 | 88 | 148 | 2.0 | 3.0 | 0.00 | 0.00 | 0.00 | 48 | 1009.7 |
| 20260509231026 | 89 | 101 | 2.0 | 5.0 | 0.00 | 0.00 | 0.00 | 47 | 1009.6 |
| 20260509230029 | 89 | 121 | 2.0 | 4.0 | 0.00 | 0.00 | 0.00 | 48 | 1009.6 |
| 20260509225046 | 89 | 135 | 3.0 | 4.0 | 0.00 | 0.00 | 0.00 | 47 | 1009.6 |